Tracking 30743 objects as of 20-Jun-2025
HD Live streaming from Space Station
objects crossing your sky now

STARLINK-30946

Track STARLINK-30946 now!
10-day predictions
STARLINK-30946 is classified as:


NORAD ID: 58450
Int'l Code: 2023-183P
Perigee: 565.9 km
Apogee: 566.5 km
Inclination: 43.0 °
Period: 95.8 minutes
Semi major axis: 6937 km
RCS: Unknown
Launch date: November 28, 2023
Source: United States (US)
Launch site: AIR FORCE EASTERN TEST RANGE (AFETR)
Your satellite tracking list
Your tracking list is empty




NASA's NSSDC Master Catalog

Two Line Element Set (TLE):
1 58450U 23183P   25171.04645057 -.00000646  00000-0 -32759-4 0  9994
2 58450  42.9995  30.6524 0000477 275.0921  84.9867 15.02539956 87233
Source of the keplerian elements: AFSPC